Flag for South Korea Weather past 2 weeks in Seoul, South Korea

Now
23 °F

Clear.


Feels Like: 17 °F
Forecast: 24 / 41 °F
Wind: 5 mph from Northwest

Location: Seoul / Kimp'O International Airport

Current Time: Mar 5, 2015 at 2:19:53 AM

Latest Report: Mar 5, 2015 at 2:00 AM


Visibility: 10 mi

Pressure: 30.33 "Hg

Humidity: 54%

Dew point: 9 °F

Location of SeoulLocation

Historic Weather in Seoul — Graph

°F

Seoul temperature yesterday

Maximum temperature yesterday: 34 °F (at 12:00 PM)
Minimum temperature yesterday: 25 °F (at 5:00 AM)
Average temperature yesterday: 29 °F

Past Weeks' High & Low Weather Summary

 TemperatureHumidityPressure
High52 °F (Feb 25, 2:00 PM)93% (Feb 22, 5:00 AM)30.42 "Hg (Feb 22, 5:00 AM)
Low23 °F (Feb 27, 5:00 AM)15% (Feb 25, 2:00 PM)29.80 "Hg (Mar 3, 4:00 PM)
Average35 °F52%30.15 "Hg
* Reported Feb 18 1:00 AM — Mar 5 1:00 AM, Seoul, Weather by CustomWeather, © 2015

Note: Actual official high and low records may vary slightly from our data, if they occured in-between our weather recording intervals... More about our weather records

Advertising

Seoul weather history for previous 24 hours

 ConditionsComfort  
Time TempWeatherWind HumidityBarometerVisibility
1:00 AM
Thu, Mar 5
25 °FClear.7 mph54%30.33 "Hg10 mi
12:00 AM27 °FClear.2 mph50%30.33 "Hg10 mi
11:00 PM
Wed, Mar 4
27 °FClear.3 mph50%30.33 "Hg10 mi
10:00 PM27 °FClear.10 mph46%30.30 "Hg10 mi
9:00 PM27 °FClear.10 mph50%30.27 "Hg10 mi
8:00 PM28 °FPassing clouds.12 mph43%30.27 "HgN/A
7:00 PM28 °FPassing clouds.10 mph40%30.24 "HgN/A
6:00 PM30 °FPassing clouds.14 mph34%30.21 "HgN/A
5:00 PM32 °FPassing clouds.14 mph32%30.18 "HgN/A
4:00 PM34 °FScattered clouds.16 mph27%30.18 "HgN/A
3:00 PM34 °FScattered clouds.16 mph29%30.15 "HgN/A
2:00 PM32 °FScattered clouds.16 mph29%30.15 "HgN/A
1:00 PM34 °FPassing clouds.16 mph27%30.15 "HgN/A
12:00 PM34 °FPassing clouds.17 mph27%30.15 "HgN/A
11:00 AM32 °FPassing clouds.17 mph27%30.18 "HgN/A
10:00 AM30 °FSunny.17 mph22%30.15 "Hg10 mi
9:00 AM28 °FSunny.17 mph24%30.15 "Hg10 mi
8:00 AM27 °FSunny.14 mph28%30.12 "Hg10 mi
7:00 AM25 °FClear.10 mph33%30.09 "Hg10 mi
6:00 AM25 °FPassing clouds.12 mph36%30.09 "HgN/A
5:00 AM25 °FPassing clouds.10 mph33%30.07 "HgN/A
4:00 AM27 °FPassing clouds.12 mph26%30.07 "HgN/A
3:00 AM27 °FPassing clouds.12 mph28%30.04 "HgN/A
2:00 AM27 °FPassing clouds.17 mph28%30.04 "HgN/A
Weather by CustomWeather, © 2015

See weather overviewHow to use our weather pages